STARLINK-32942, 63120

Orbit data source: Space-Track

STARLINK-32942, 63120 is a payload satellite owned by SpaceX/Seattle (US) in LEO that was launched on Thu, 27 Feb 2025 UTC via an FALCON 9 launch vehicle from the Air Force Eastern Test Range (AFETR). Payload-class satellites include a variety of spacecraft equipped with specific instruments for various scientific and technological missions. These include communications satellites like Starlink; space stations such as the ISS; scientific satellites like the Hubble; Earth observation satellites from companies like Planet Labs, Umbra, and HawkEye 360; GPS; miniature CubeSats for education and research; and military/defense satellites.

Loading next visibility...
Identifier
63120, 2025-039S
Orbit
LEO
Country
Flag of USUS
Related business
Manufacturer
SpaceX/Seattle
Mission
Operational Commercial Communications
Bus & Motor
STARLINK V2M, Unknown motor
Mass
730 kg wet, ~700 kg dry
Launch date (UTC)
2025-02-27 (11 months ago)
Launch vehicle
FALCON 9
Launch site
Air Force Eastern Test Range (AFETR)
Object type
Payload
Rocket body
Debris
Shape & HBR
Box + 2 Pan, 17.7 m
Radar Cross Section
33.884 m², Large (>1 m²)

Expand to show TLE details & history
Last TLE update: 22 hours ago

TLE from 22 hours ago
0 STARLINK-32942
1 63120U 25039S   26034.53146425  .00036495  00000-0  13294-2 0  9994
2 63120  43.0016 205.6079 0001764 263.4247  96.6404 15.27573665 52848
Epoch: 2026-02-03T12:45Z
TLE epoch observation values (Epoch: 2026-02-03T12:45:18.511Z)
Latitude
Longitude
-119.43028°
Altitude
482.984 km
Speed
7.626 km/s
True Right ascension
13h 42m 25s
True Declination
0° 00' 00"
Sunlit
Object was in daylight at epoch
Visualization orbit readout
Latitude
Unknown
Longitude
Unknown
Altitude
Unknown
Speed
Unknown
Apparent Right ascension
Unknown
Apparent Declination
Unknown
Sunlit
N/A
Visualization observer readout
Local Sidereal Time
12:24:06
Azimuth
Unknown
Elevation
Unknown
Doppler factor
Unknown
Orbital elements
Apogee altitude
486.224 km
Perigee altitude
483.802 km
Semi-major axis
6,863.15 km
Eccentricity
0.00018
Inclination
43.0016°
RAAN
205.6079°
Arg. of periapsis
263.4247°
True anomaly
96.66048°
Mean anomaly
96.6404°
Eccentric anomaly
96.65044°
Mean motion
3.81731 °/min
Orbital period
94.31 mins
BSTAR
0.0013294
Loading maneuver chart data...
Computing Atmospheric mass density...
Loading historical data...
Loading historical data...
Loading historical data...
Loading historical data...
Loading historical data...
Loading historical data...
Loading historical data...

Documentation

Showing up to 5 results
|